When you browse on this site, cookies collect data to enhance your experience and personalize the content and advertising you see.
Visit our Privacy Policy to learn more. By continuing to use the site, you agree to this use of cookies and data.
  • In Switzerland
  • List of Countries
  • For 7 days
  • Water Temperature
  • Satellite Maps
  • Weather Map
  • Weather Widgets
  • user-avatar
    Login

    Hourly Weather Kusty

    Today, 17 June, Monday

    Time Temperature Precipitation Wind Pressure Humidity
    00:00 +15°C° 0 mm 1 mps 742 mmHg 92%
    01:00 +15°C° 0 mm 1 mps 743 mmHg 93%
    02:00 +14°C° 0 mm 1 mps 743 mmHg 93%
    03:00 +14°C° 0 mm 1 mps 743 mmHg 93%
    04:00 +14°C° 0 mm 1 mps 743 mmHg 91%
    05:00 +15°C° 0 mm 1 mps 743 mmHg 90%
    06:00 +16°C° 0 mm 1 mps 743 mmHg 88%
    07:00 +16°C° 0 mm 0 mps 743 mmHg 83%
    08:00 +18°C° 0 mm 0 mps 743 mmHg 77%
    09:00 +19°C° 0 mm 0 mps 743 mmHg 72%
    10:00 +22°C° 0 mm 1 mps 743 mmHg 68%
    11:00 +23°C° 0 mm 1 mps 744 mmHg 64%
    12:00 +24°C° 0 mm 2 mps 744 mmHg 60%
    13:00 +24°C° 0.1 mm 2 mps 743 mmHg 62%
    14:00 +24°C° 0.1 mm 3 mps 743 mmHg 63%
    15:00 +24°C° 0.1 mm 3 mps 743 mmHg 65%
    16:00 +24°C° 0.1 mm 3 mps 743 mmHg 67%
    17:00 +24°C° 0.1 mm 3 mps 742 mmHg 70%
    18:00 +24°C° 0.1 mm 2 mps 742 mmHg 73%
    19:00 +21°C° 0 mm 2 mps 742 mmHg 76%
    20:00 +20°C° 0 mm 2 mps 742 mmHg 80%
    21:00 +19°C° 0 mm 1 mps 742 mmHg 84%
    22:00 +19°C° 0 mm 1 mps 742 mmHg 85%
    23:00 +18°C° 0 mm 1 mps 742 mmHg 86%

    Tomorrow, 18 June, Tuesday

    Time Temperature Precipitation Wind Pressure Humidity
    00:00 +17°C° 0 mm 2 mps 742 mmHg 87%
    01:00 +17°C° 0 mm 2 mps 742 mmHg 88%
    02:00 +17°C° 0 mm 2 mps 742 mmHg 89%
    03:00 +16°C° 0 mm 2 mps 742 mmHg 90%
    04:00 +17°C° 0 mm 2 mps 742 mmHg 89%
    05:00 +18°C° 0 mm 3 mps 742 mmHg 89%
    06:00 +18°C° 0 mm 3 mps 742 mmHg 88%
    07:00 +19°C° 0.1 mm 3 mps 742 mmHg 85%
    08:00 +21°C° 0.1 mm 4 mps 742 mmHg 81%
    09:00 +22°C° 0.1 mm 4 mps 742 mmHg 78%
    10:00 +22°C° 0.9 mm 5 mps 741 mmHg 79%
    11:00 +23°C° 0.9 mm 5 mps 741 mmHg 80%
    12:00 +23°C° 0.9 mm 5 mps 741 mmHg 81%
    13:00 +23°C° 0.3 mm 5 mps 741 mmHg 83%
    14:00 +22°C° 0.3 mm 5 mps 741 mmHg 84%
    15:00 +22°C° 0.3 mm 4 mps 741 mmHg 85%
    16:00 +22°C° 0 mm 4 mps 741 mmHg 85%
    17:00 +22°C° 0 mm 4 mps 741 mmHg 85%
    18:00 +22°C° 0 mm 3 mps 741 mmHg 84%
    19:00 +21°C° 0.1 mm 3 mps 741 mmHg 87%
    20:00 +20°C° 0.1 mm 3 mps 741 mmHg 89%
    21:00 +19°C° 0.1 mm 2 mps 741 mmHg 92%
    22:00 +18°C° 0 mm 2 mps 741 mmHg 91%
    23:00 +17°C° 0 mm 3 mps 742 mmHg 90%

    Day after tomorrow, 19 June, Wednesday

    Time Temperature Precipitation Wind Pressure Humidity
    00:00 +17°C° 0 mm 3 mps 742 mmHg 89%
    01:00 +16°C° 0 mm 3 mps 742 mmHg 90%
    02:00 +16°C° 0 mm 3 mps 742 mmHg 91%
    03:00 +14°C° 0 mm 3 mps 742 mmHg 91%
    04:00 +16°C° 0 mm 3 mps 742 mmHg 90%
    05:00 +16°C° 0 mm 3 mps 743 mmHg 89%
    06:00 +17°C° 0 mm 3 mps 743 mmHg 88%
    07:00 +18°C° 0 mm 3 mps 743 mmHg 83%
    08:00 +20°C° 0 mm 3 mps 743 mmHg 79%
    09:00 +21°C° 0 mm 3 mps 744 mmHg 74%
    10:00 +22°C° 0 mm 3 mps 744 mmHg 69%
    11:00 +24°C° 0 mm 3 mps 744 mmHg 63%
    12:00 +25°C° 0 mm 4 mps 744 mmHg 57%
    13:00 +25°C° 0 mm 4 mps 744 mmHg 57%
    14:00 +26°C° 0 mm 4 mps 744 mmHg 57%
    15:00 +26°C° 0 mm 4 mps 744 mmHg 57%
    16:00 +26°C° 0 mm 3 mps 744 mmHg 62%
    17:00 +25°C° 0 mm 3 mps 744 mmHg 66%
    18:00 +25°C° 0 mm 2 mps 744 mmHg 70%
    19:00 +23°C° 0 mm 2 mps 744 mmHg 73%
    20:00 +21°C° 0 mm 2 mps 744 mmHg 76%
    21:00 +20°C° 0 mm 1 mps 744 mmHg 79%
    22:00 +19°C° 0 mm 1 mps 744 mmHg 77%
    23:00 +19°C° 0 mm 1 mps 744 mmHg 75%

    20 June, Thursday

    Time Temperature Precipitation Wind Pressure Humidity
    00:00 +18°C° 0 mm 1 mps 745 mmHg 73%
    01:00 +18°C° 0 mm 1 mps 745 mmHg 75%
    02:00 +16°C° 0 mm 2 mps 745 mmHg 77%
    03:00 +16°C° 0 mm 2 mps 745 mmHg 78%
    04:00 +16°C° 0 mm 2 mps 745 mmHg 79%
    05:00 +18°C° 0 mm 1 mps 745 mmHg 81%
    06:00 +19°C° 0 mm 1 mps 746 mmHg 82%
    07:00 +20°C° 0 mm 1 mps 746 mmHg 77%
    08:00 +22°C° 0 mm 1 mps 746 mmHg 72%
    09:00 +24°C° 0 mm 1 mps 746 mmHg 67%
    10:00 +25°C° 0 mm 1 mps 746 mmHg 62%
    11:00 +26°C° 0 mm 2 mps 746 mmHg 57%
    12:00 +27°C° 0 mm 2 mps 746 mmHg 52%
    13:00 +27°C° 0 mm 2 mps 746 mmHg 51%
    14:00 +27°C° 0 mm 1 mps 746 mmHg 49%
    15:00 +27°C° 0 mm 1 mps 746 mmHg 48%
    16:00 +27°C° 0 mm 1 mps 746 mmHg 52%
    17:00 +27°C° 0 mm 1 mps 746 mmHg 55%
    18:00 +27°C° 0 mm 1 mps 746 mmHg 59%
    19:00 +25°C° 0 mm 1 mps 746 mmHg 63%
    20:00 +23°C° 0 mm 1 mps 746 mmHg 66%
    21:00 +21°C° 0 mm 1 mps 746 mmHg 70%
    22:00 +21°C° 0 mm 1 mps 746 mmHg 71%
    23:00 +20°C° 0 mm 1 mps 746 mmHg 73%

    21 June, Friday

    Time Temperature Precipitation Wind Pressure Humidity
    00:00 +19°C° 0 mm 1 mps 746 mmHg 75%
    01:00 +19°C° 0 mm 1 mps 746 mmHg 76%
    02:00 +18°C° 0 mm 1 mps 746 mmHg 78%
    03:00 +18°C° 0 mm 1 mps 746 mmHg 80%
    04:00 +17°C° 0 mm 0 mps 747 mmHg 80%
    05:00 +18°C° 0 mm 0 mps 747 mmHg 80%
    06:00 +19°C° 0 mm 0 mps 747 mmHg 80%
    07:00 +20°C° 0 mm 0 mps 747 mmHg 75%
    08:00 +21°C° 0 mm 0 mps 747 mmHg 70%
    09:00 +23°C° 0 mm 0 mps 747 mmHg 65%
    10:00 +26°C° 0 mm 1 mps 747 mmHg 61%
    11:00 +26°C° 0 mm 1 mps 747 mmHg 57%
    12:00 +27°C° 0 mm 1 mps 747 mmHg 53%
    13:00 +27°C° 0 mm 1 mps 747 mmHg 52%
    14:00 +28°C° 0 mm 2 mps 747 mmHg 52%
    15:00 +28°C° 0 mm 2 mps 747 mmHg 51%
    16:00 +28°C° 0 mm 2 mps 746 mmHg 56%
    17:00 +27°C° 0 mm 2 mps 746 mmHg 60%
    18:00 +27°C° 0 mm 2 mps 746 mmHg 65%
    19:00 +25°C° 0 mm 2 mps 746 mmHg 67%
    20:00 +24°C° 0 mm 1 mps 746 mmHg 69%
    21:00 +22°C° 0 mm 1 mps 746 mmHg 71%
    22:00 +21°C° 0 mm 1 mps 746 mmHg 71%
    23:00 +21°C° 0 mm 1 mps 746 mmHg 71%

    22 June, Saturday

    Time Temperature Precipitation Wind Pressure Humidity
    00:00 +20°C° 0 mm 1 mps 746 mmHg 71%
    01:00 +20°C° 0 mm 1 mps 746 mmHg 73%
    02:00 +20°C° 0 mm 1 mps 746 mmHg 74%
    03:00 +19°C° 0 mm 1 mps 746 mmHg 76%
    04:00 +20°C° 0 mm 1 mps 747 mmHg 77%
    05:00 +21°C° 0 mm 1 mps 747 mmHg 78%
    06:00 +21°C° 0 mm 1 mps 747 mmHg 79%
    07:00 +23°C° 0 mm 1 mps 747 mmHg 74%
    08:00 +24°C° 0 mm 1 mps 747 mmHg 70%
    09:00 +25°C° 0 mm 1 mps 747 mmHg 65%
    10:00 +26°C° 0 mm 1 mps 747 mmHg 61%
    11:00 +27°C° 0 mm 2 mps 747 mmHg 57%
    12:00 +28°C° 0 mm 2 mps 747 mmHg 53%
    13:00 +28°C° 0 mm 2 mps 747 mmHg 55%
    14:00 +28°C° 0 mm 2 mps 746 mmHg 56%
    15:00 +28°C° 0 mm 2 mps 746 mmHg 57%
    16:00 +28°C° 0 mm 2 mps 746 mmHg 60%
    17:00 +28°C° 0 mm 2 mps 746 mmHg 62%
    18:00 +28°C° 0 mm 1 mps 746 mmHg 65%
    19:00 +26°C° 0 mm 1 mps 746 mmHg 67%
    20:00 +24°C° 0 mm 1 mps 746 mmHg 69%
    21:00 +23°C° 0 mm 1 mps 746 mmHg 72%
    22:00 +22°C° 0 mm 1 mps 746 mmHg 72%
    23:00 +22°C° 0 mm 1 mps 746 mmHg 72%
    Show more